Carmi, IL

9:26 AM CDT on March 27, 2017 (GMT -0500)
Carmi Municipal

Weather History for KCUL - October, 2011

Change the Weather History Date:

Friday, October 14, 2011

  Actual Average (KEHR) Record (KEHR)
Temperature  
Mean Temperature 62 °F -  
Max Temperature 71 °F 72 °F 91 °F (1935)
Min Temperature 53 °F 47 °F 28 °F (1987)
Degree Days  
Heating Degree Days 3    
Growing Degree Days 12 (Base 50)    
Moisture  
Dew Point 44 °F    
Average Humidity 56    
Maximum Humidity 88    
Minimum Humidity 29    
Precipitation  
Precipitation 0.00 in - - ()
Sea Level Pressure  
Sea Level Pressure 29.78 in    
Wind  
Wind Speed 10 mph (West)    
Max Wind Speed 23 mph    
Max Gust Speed 33 mph    
Visibility 10 miles    
Events      
Averages and records for this station are not official NWS values.
T = Trace of Precipitation, MM = Missing Value Source: NWS Daily Summary

Daily Weather History Graph

Daily Weather History Graph

Search for Another Location

Airport or City:

Trip Planner

Search our weather history database for the weather conditions in past years. The results will help you decide how hot, cold, wet, or windy it might be!

Date:

Astronomy

Oct. 14, 2011 Rise Set
Actual Time 6:59 AM CDT 6:16 PM CDT
Civil Twilight 6:33 AM CDT 6:42 PM CDT
Nautical Twilight 6:02 AM CDT 7:13 PM CDT
Astronomical Twilight 5:32 AM CDT 7:44 PM CDT
Moon 7:33 PM CDT (10/14) 9:25 AM CDT (10/14)
Length of Visible Light 12h 09m
Length of Day
11h 16m
Waning Gibbous, 94% of the Moon is Illuminated
Oct 14
Waning Gibbous
Oct 19
Last Quarter
Oct 26
New
Nov 2
First Quarter
Nov 10
Full

Hourly Weather History & Observations

Time (CDT) Temp. Dew Point Humidity Pressure Visibility Wind Dir Wind Speed Gust Speed Precip Events Conditions
12:15 AM 55.4 °F 50.0 °F 82% 29.69 in 10.0 mi West 5.8 mph - N/A   Clear
12:35 AM 53.6 °F 50.0 °F 88% 29.69 in 10.0 mi West 6.9 mph - N/A   Clear
12:55 AM 55.4 °F 50.0 °F 82% 29.70 in 10.0 mi West 8.1 mph - N/A   Clear
1:15 AM 55.4 °F 50.0 °F 82% 29.70 in 10.0 mi West 8.1 mph - N/A   Clear
1:35 AM 55.4 °F 48.2 °F 77% 29.71 in 10.0 mi West 8.1 mph - N/A   Clear
1:55 AM 55.4 °F 50.0 °F 82% 29.71 in 10.0 mi West 6.9 mph - N/A   Clear
2:15 AM 55.4 °F 48.2 °F 77% 29.72 in 10.0 mi West 8.1 mph - N/A   Clear
2:35 AM 55.4 °F 48.2 °F 77% 29.72 in 10.0 mi WSW 6.9 mph - N/A   Clear
2:55 AM 53.6 °F 48.2 °F 82% 29.72 in 10.0 mi WSW 8.1 mph - N/A   Clear
3:15 AM 53.6 °F 48.2 °F 82% 29.72 in 10.0 mi WSW 6.9 mph - N/A   Clear
3:35 AM 53.6 °F 48.2 °F 82% 29.72 in 10.0 mi West 5.8 mph - N/A   Clear
3:55 AM 53.6 °F 46.4 °F 77% 29.72 in 10.0 mi West 6.9 mph - N/A   Clear
4:15 AM 53.6 °F 46.4 °F 77% 29.73 in 10.0 mi West 5.8 mph - N/A   Scattered Clouds
4:35 AM 53.6 °F 46.4 °F 77% 29.74 in 10.0 mi West 5.8 mph - N/A   Scattered Clouds
4:55 AM 53.6 °F 46.4 °F 77% 29.74 in 10.0 mi West 5.8 mph - N/A   Clear
5:15 AM 53.6 °F 46.4 °F 77% 29.74 in 10.0 mi West 6.9 mph - N/A   Clear
5:35 AM 53.6 °F 46.4 °F 77% 29.75 in 10.0 mi West 8.1 mph - N/A   Clear
5:55 AM 53.6 °F 46.4 °F 77% 29.75 in 10.0 mi WSW 8.1 mph - N/A   Clear
6:15 AM 53.6 °F 46.4 °F 77% 29.75 in 10.0 mi WSW 6.9 mph - N/A   Clear
6:35 AM 53.6 °F 46.4 °F 77% 29.76 in 10.0 mi WSW 8.1 mph - N/A   Clear
6:55 AM 53.6 °F 46.4 °F 77% 29.76 in 10.0 mi WSW 8.1 mph - N/A   Clear
7:15 AM 53.6 °F 46.4 °F 77% 29.77 in 10.0 mi West 8.1 mph - N/A   Clear
7:35 AM 53.6 °F 46.4 °F 77% 29.77 in 10.0 mi West 8.1 mph - N/A   Clear
8:15 AM 57.2 °F 46.4 °F 67% 29.79 in 10.0 mi West 9.2 mph - N/A   Clear
8:35 AM 59.0 °F 46.4 °F 63% 29.79 in 10.0 mi West 11.5 mph - N/A   Clear
8:55 AM 60.8 °F 46.4 °F 59% 29.79 in 10.0 mi West 10.4 mph - N/A   Clear
9:15 AM 62.6 °F 46.4 °F 55% 29.81 in 10.0 mi West 13.8 mph - N/A   Clear
9:35 AM 62.6 °F 46.4 °F 55% 29.82 in 10.0 mi West 12.7 mph 24.2 mph N/A   Clear
9:55 AM 64.4 °F 44.6 °F 49% 29.82 in 10.0 mi West 15.0 mph - N/A   Clear
10:15 AM 66.2 °F 44.6 °F 46% 29.83 in 10.0 mi West 13.8 mph 19.6 mph N/A   Clear
10:35 AM 68.0 °F 44.6 °F 43% 29.83 in 10.0 mi West 15.0 mph 21.9 mph N/A   Clear
10:55 AM 69.8 °F 42.8 °F 38% 29.83 in 10.0 mi West 19.6 mph 24.2 mph N/A   Unknown
11:15 AM 69.8 °F 42.8 °F 38% 29.83 in 10.0 mi West 17.3 mph 23.0 mph N/A   Clear
11:35 AM 69.8 °F 42.8 °F 38% 29.83 in 10.0 mi West 18.4 mph 26.5 mph N/A   Clear
11:55 AM 69.8 °F 41.0 °F 35% 29.83 in 10.0 mi West 16.1 mph 23.0 mph N/A   Clear
12:15 PM 71.6 °F 42.8 °F 35% 29.83 in 10.0 mi West 18.4 mph 25.3 mph N/A   Clear
12:35 PM 71.6 °F 41.0 °F 33% 29.83 in 10.0 mi West 19.6 mph 26.5 mph N/A   Clear
12:55 PM 69.8 °F 41.0 °F 35% 29.82 in 10.0 mi West 19.6 mph 27.6 mph N/A   Scattered Clouds
1:15 PM 71.6 °F 39.2 °F 31% 29.82 in 10.0 mi WNW 19.6 mph 31.1 mph N/A   Scattered Clouds
1:35 PM 71.6 °F 39.2 °F 31% 29.81 in 10.0 mi West 19.6 mph 29.9 mph N/A   Scattered Clouds
2:15 PM 71.6 °F 37.4 °F 29% 29.80 in 10.0 mi West 20.7 mph 29.9 mph N/A   Clear
2:35 PM 71.6 °F 37.4 °F 29% 29.79 in 10.0 mi WNW 19.6 mph 33.4 mph N/A   Clear
2:55 PM 71.6 °F 39.2 °F 31% 29.80 in 10.0 mi West 18.4 mph 26.5 mph N/A   Clear
3:15 PM 71.6 °F 37.4 °F 29% 29.80 in 10.0 mi WNW 20.7 mph 26.5 mph N/A   Clear
3:35 PM 71.6 °F 37.4 °F 29% 29.81 in 10.0 mi West 23.0 mph 32.2 mph N/A   Clear
3:55 PM 71.6 °F 37.4 °F 29% 29.80 in 10.0 mi West 13.8 mph 27.6 mph N/A   Clear
4:15 PM 71.6 °F 37.4 °F 29% 29.80 in 10.0 mi West 16.1 mph 24.2 mph N/A   Clear
4:35 PM 69.8 °F 37.4 °F 31% 29.81 in 10.0 mi West 13.8 mph 19.6 mph N/A   Scattered Clouds
4:55 PM 69.8 °F 39.2 °F 33% 29.81 in 10.0 mi West 12.7 mph 18.4 mph N/A   Mostly Cloudy
5:15 PM 68.0 °F 39.2 °F 35% 29.81 in 10.0 mi West 10.4 mph - N/A   Mostly Cloudy
5:35 PM 68.0 °F 41.0 °F 37% 29.81 in 10.0 mi West 8.1 mph 16.1 mph N/A   Scattered Clouds
5:55 PM 66.2 °F 41.0 °F 40% 29.81 in 10.0 mi West 6.9 mph - N/A   Scattered Clouds
6:15 PM 64.4 °F 42.8 °F 45% 29.81 in 10.0 mi West 5.8 mph - N/A   Scattered Clouds
6:35 PM 60.8 °F 42.8 °F 52% 29.82 in 10.0 mi West 6.9 mph - N/A   Clear
6:55 PM 60.8 °F 42.8 °F 52% 29.83 in 10.0 mi West 6.9 mph - N/A   Clear
7:15 PM 60.8 °F 42.8 °F 52% 29.83 in 10.0 mi West 6.9 mph - N/A   Clear
7:35 PM 60.8 °F 41.0 °F 48% 29.84 in 10.0 mi West 6.9 mph - N/A   Clear
7:55 PM 60.8 °F 41.0 °F 48% 29.85 in 10.0 mi West 11.5 mph 16.1 mph N/A   Clear
8:15 PM 60.8 °F 41.0 °F 48% 29.86 in 10.0 mi West 9.2 mph - N/A   Clear
8:35 PM 59.0 °F 41.0 °F 51% 29.87 in 10.0 mi West 9.2 mph - N/A   Clear
8:55 PM 59.0 °F 41.0 °F 51% 29.87 in 10.0 mi West 8.1 mph - N/A   Clear
9:15 PM 55.4 °F 41.0 °F 58% 29.88 in 10.0 mi West 8.1 mph - N/A   Clear
9:35 PM 57.2 °F 41.0 °F 55% 29.89 in 10.0 mi West 8.1 mph - N/A   Clear
9:55 PM 53.6 °F 41.0 °F 62% 29.89 in 10.0 mi West 8.1 mph - N/A   Clear
10:15 PM 55.4 °F 41.0 °F 58% 29.90 in 10.0 mi West 6.9 mph - N/A   Clear
10:35 PM 53.6 °F 41.0 °F 62% 29.91 in 10.0 mi West 8.1 mph - N/A   Clear
10:55 PM 53.6 °F 41.0 °F 62% 29.91 in 10.0 mi West 8.1 mph - N/A   Clear
11:15 PM 53.6 °F 41.0 °F 62% 29.92 in 10.0 mi West 8.1 mph - N/A   Clear
11:35 PM 53.6 °F 41.0 °F 62% 29.92 in 10.0 mi West 9.2 mph - N/A   Clear